Temp
-1 -1 -1 -2 -2 -2 -2 -2 -2 -3 -3 -3 -4 -4 -4 -4 -4 -4 -4 -4 -4 -4
-2 -2 -2 -3 -3 -3 -3 -3 -3 -3 -4 -4 -4 -4 -4 -4 -4 -4 -4 -4 -4 -4
-2 -3 -3 -3 -3 -3 -4 -4 -4 -4 -5 -5 -5 -5 -5 -5 -5 -5 -5 -5 -5 -5
-3 -3 -4 -4 -4 -4 -4 -5 -5 -5 -5 -5 -5 -5 -5 -5 -6 -5 -5 -5 -6 -5
-4 -4 -4 -5 -5 -5 -5 -5 -6 -6 -6 -6 -6 -6 -6 -6 -6 -6 -6 -6 -6 -6
-4 -4 -5 -5 -6 -6 -6 -6 -6 -6 -6 -6 -6 -6 -6 -7 -6 -6 -6 -6 -6 -6
-5 -6 -6 -6 -6 -6 -6 -6 -6 -7 -7 -7 -7 -7 -7 -7 -6 -6 -6 -6 -6 -6
-6 -7 -7 -7 -7 -7 -7 -7 -7 -7 -7 -7 -7 -7 -6 -6 -6 -6 -6 -6 -6 -6
-7 -7 -7 -7 -7 -7 -7 -7 -7 -7 -7 -8 -7 -7 -6 -5 -6 -5 -6 -6 -5 -5
-7 -8 -8 -7 -8 -8 -8 -8 -8 -8 -8 -8 -8 -7 -6 -5 -5 -5 -5 -5 -5 -5
-8 -8 -8 -8 -9 -9 -9 -9 -9 -9 -8 -9 -8 -7 -6 -5 -5 -5 -5 -5 -5 -5
-9 -9 -9 -10 -10 -10 -10 -9 -9 -9 -8 -8 -8 -7 -6 -5 -5 -4 -5 -5 -5 -4
-10 -10 -10 -10 -10 -10 -9 -9 -9 -8 -8 -8 -8 -7 -5 -4 -5 -5 -5 -4 -5 -4
-10 -11 -11 -10 -10 -9 -9 -9 -8 -9 -8 -8 -7 -6 -5 -5 -4 -5 -4 -5 -5 -5
Height
834 835 835 837 838 838 837 836 835 833 832 831 829 828 826 824 820 818 815 813 811 810
833 833 834 835 836 835 834 833 832 831 829 827 826 824 821 818 815 812 810 808 806 804
832 832 833 834 833 832 831 830 829 828 826 824 823 820 817 813 811 808 805 802 800 798
831 831 832 831 830 829 828 827 827 825 823 820 817 814 812 809 806 803 800 798 795 791
829 830 830 829 828 827 826 825 824 821 818 815 812 809 807 804 801 798 795 792 789 786
827 828 828 827 826 825 824 822 819 817 814 810 807 805 801 798 796 792 789 785 781 778
824 826 826 825 823 822 819 817 814 812 809 805 802 800 797 794 789 785 782 778 774 769
821 823 823 821 819 816 814 812 810 808 805 801 799 795 791 787 783 779 774 770 764 759
821 820 819 818 815 813 810 808 806 805 802 798 793 789 785 781 777 772 766 762 754 749
818 816 815 814 812 811 809 807 803 801 798 793 787 784 780 775 771 764 758 752 745 739
814 812 812 812 812 810 807 805 801 796 791 787 782 780 776 770 763 755 750 744 737 730
811 811 812 812 810 808 805 801 796 791 788 783 777 773 769 762 757 750 743 734 728 723
811 810 810 810 808 805 800 796 793 789 785 780 774 769 764 755 749 744 735 724 720 714
810 809 807 806 804 800 798 794 791 786 779 774 770 764 760 754 745 738 726 719 711 705
Wind_Speed
2 2 3 4 8 10 12 14 17 18 20 22 22 23 23 24 25 22 24 26 27 26
1 2 4 7 9 11 13 15 16 19 21 21 22 23 24 25 26 26 27 27 26 26
1 3 6 8 10 12 14 16 18 19 20 22 23 24 24 25 25 25 27 27 27 27
1 3 6 9 11 13 15 16 18 19 21 23 24 24 25 26 26 25 26 27 28 28
2 5 8 10 12 13 15 16 18 20 22 25 25 25 26 27 27 28 28 28 28 30
3 6 9 11 13 14 15 19 21 22 23 26 27 27 28 28 28 28 29 30 30 32
4 7 9 11 13 16 18 21 23 24 25 27 28 27 27 27 27 28 29 32 34 35
4 7 9 11 14 18 20 22 24 26 27 29 28 25 26 28 28 29 32 32 33 35
6 8 11 14 17 20 22 23 24 26 27 27 28 25 26 29 29 29 31 33 35 37
6 10 13 17 20 21 23 23 25 26 26 28 31 26 27 29 30 31 32 36 37 37
8 12 15 18 19 21 21 22 25 27 28 28 33 27 28 30 31 33 33 36 37 37
11 13 16 19 21 20 21 25 26 26 27 29 31 29 29 31 32 29 30 36 34 35
11 13 16 18 20 22 21 25 23 29 26 28 30 30 30 31 30 30 35 32 28 35
10 13 13 16 18 21 23 24 25 26 29 28 26 28 30 31 33 35 35 31 32 34
Wind_Direction
98 43 358 326 309 312 314 315 316 316 312 311 312 310 309 305 302 303 299 296 294 292
127 330 327 311 308 312 310 313 310 306 309 309 307 305 305 304 302 302 299 296 294 292
4 332 312 306 308 309 307 306 308 310 307 305 305 305 306 303 300 298 294 293 291 290
258 301 298 304 307 309 308 311 308 307 307 307 307 307 306 302 300 297 296 294 292 290
319 313 305 308 311 310 307 308 308 312 312 311 309 307 305 302 300 298 296 295 293 288
321 309 309 314 313 313 315 314 319 317 313 312 311 307 303 300 298 296 292 289 286 284
312 309 311 312 319 320 323 321 321 319 316 313 307 302 300 299 295 290 286 286 284 284
309 312 320 325 326 326 326 325 322 318 314 308 304 303 305 304 300 295 293 292 289 286
332 331 333 334 333 329 328 324 319 313 309 305 303 308 310 308 304 304 298 294 292 290
341 340 340 335 333 327 321 318 315 312 310 307 310 316 313 310 308 301 296 293 293 293
344 344 339 331 324 320 320 316 312 312 315 314 314 315 315 314 308 303 298 295 294 294
349 339 331 322 322 324 317 317 319 318 315 311 312 315 317 316 314 308 302 300 294 304
340 327 319 324 324 324 326 321 321 313 314 315 312 319 321 321 320 312 309 302 310 309
335 325 322 322 329 330 326 323 324 318 323 317 319 323 325 323 322 317 312 320 312 312